Waarnemingen

Advertentie
Mijn weer
Biscarosse, Frankrijk (7503): temperatuur & dauwpunt: 21.03.2017 06:00:00 - 27.03.2017 06:00:00 (CEST)Biscarosse, Frankrijk (7503): temperatuur 5cm: 21.03.2017 06:00:00 - 27.03.2017 06:00:00 (CEST)Biscarosse, Frankrijk (7503): temperatuur -20cm & temperatuur -100cm: 21.03.2017 06:00:00 - 27.03.2017 06:00:00 (CEST)Biscarosse, Frankrijk (7503): windsnelheid & windstoten: 21.03.2017 06:00:00 - 27.03.2017 06:00:00 (CEST)Biscarosse, Frankrijk (7503): windrichting: 21.03.2017 06:00:00 - 27.03.2017 06:00:00 (CEST)Biscarosse, Frankrijk (7503): luchtdruk: 21.03.2017 06:00:00 - 27.03.2017 06:00:00 (CEST)Biscarosse, Frankrijk (7503): zicht: 21.03.2017 06:00:00 - 27.03.2017 06:00:00 (CEST)Biscarosse, Frankrijk (7503): Zonneschijnduur: 21.03.2017 06:00:00 - 27.03.2017 06:00:00 (CEST)Biscarosse, Frankrijk (7503): neerslag: 21.03.2017 06:00:00 - 27.03.2017 06:00:00 (CEST)
Datum & Tijd tt [°C] td [°C] tt 5cm [°C] tt -20cm [°C] tt -100cm [°C] ff [km/u] ff [kn] fx [km/u] fx [kn] dd ppp [hPa] vv [km] sd [min] rr [mm]
27.03.2017 06:00:00 10,2 4,8 9,8 12,5 12,4 20 11 35 19 OZO 1013,4 20 0 0,0
27.03.2017 05:00:00 10,7 4,8 9,1 12,7 12,4 21 11 41 22 ZO 1013,5 20 0 0,0
27.03.2017 04:00:00 10,3 4,2 9,3 13,0 12,4 19 10 32 18 OZO 1014,3 20 0 0,0
27.03.2017 03:00:00 11,2 4,2 10,3 13,2 12,4 18 10 35 19 ZO 1014,5 20 0 0,0
27.03.2017 02:00:00 11,8 3,5 10,7 13,5 12,4 17 9 32 17 OZO 1014,9 20 0 0,0
27.03.2017 01:00:00 12,7 2,5 11,4 13,8 12,4 18 10 30 16 OZO 1014,9 20 0 0,0
27.03.2017 00:00:00 13,7 2,6 12,0 14,0 12,4 16 9 24 13 OZO 1014,9 20 0 0,0
26.03.2017 23:00:00 14,4 3,2 12,5 14,2 12,4 15 8 27 15 OZO 1015,0 20 0 0,0
26.03.2017 22:00:00 15,2 4,0 13,3 14,4 12,4 16 9 27 14 OZO 1015,2 20 0 0,0
26.03.2017 21:00:00 15,4 4,4 12,9 14,4 12,4 12 7 18 10 OZO 1014,8 20 0 0,0
26.03.2017 20:00:00 17,8 4,0 16,1 14,3 12,5 5 3 15 8 OZO 1014,5 20 30 0,0
26.03.2017 19:00:00 19,5 3,2 19,4 14,0 12,5 6 4 24 13 ZZO 1014,1 20 47 0,0
26.03.2017 18:00:00 19,8 3,9 20,4 13,5 12,5 11 6 30 16 ZZO 1014,4 20 50 0,0
26.03.2017 17:00:00 19,1 3,3 21,8 12,9 12,5 10 5 22 12 ZO 1014,8 20 21 0,0
26.03.2017 16:00:00 19,2 4,5 22,4 12,2 12,5 12 7 27 15 ZZO 1015,6 20 49 0,0
26.03.2017 15:00:00 17,7 5,6 21,1 11,4 12,5 11 6 20 11 ZZO 1016,2 20 50 0,2
26.03.2017 14:00:00 16,7 5,3 18,2 10,8 12,5 11 6 26 14 OZO 1016,7 20 41 0,0
26.03.2017 13:00:00 14,2 7,0 12,2 10,4 12,5 13 7 26 14 OZO 1017,0 20 21 0,0
26.03.2017 12:00:00 10,5 6,1 11,2 10,2 12,5 14 7 24 13 OZO 1017,1 20 0 0,0
26.03.2017 11:00:00 9,4 5,2 10,2 10,1 12,5 14 7 28 15 ZO 1016,9 20 14 0,0
26.03.2017 10:00:00 7,7 4,3 6,6 10,3 12,5 15 8 32 18 ZO 1016,2 20 11 0,0
26.03.2017 09:00:00 6,0 4,5 5,0 10,5 12,5 19 11 30 16 ZO 1015,8 20 6 0,0
26.03.2017 08:00:00 5,4 3,9 5,0 10,7 12,5 16 9 27 15 ZO 1015,0 20 0 0,0
26.03.2017 07:00:00 6,0 4,2 5,4 10,9 12,5 15 8 27 15 OZO 1014,6 20 0 0,0
26.03.2017 06:00:00 6,7 4,4 6,0 11,2 12,5 15 8 28 15 OZO 1014,4 20 0 0,0
26.03.2017 05:00:00 7,4 4,9 6,5 11,3 12,4 16 9 24 13 OZO 1014,4 20 0 0,0
26.03.2017 04:00:00 8,8 4,6 8,0 11,5 12,4 14 7 29 16 ZO 1014,5 20 0 0,0
26.03.2017 03:00:00 8,5 4,5 7,8 11,7 12,4 12 6 21 11 ZO 1014,7 20 0 0,0
26.03.2017 02:00:00 8,2 4,6 7,3 11,9 12,4 9 5 21 11 ZO 1014,7 20 0 0,0
26.03.2017 01:00:00 8,0 3,6 7,1 12,3 12,4 12 7 23 12 Z 1014,4 20 0 0,0
26.03.2017 00:00:00 8,1 4,5 6,5 12,6 12,4 13 7 31 17 ZZO 1014,4 20 0 0,0
25.03.2017 23:00:00 7,2 4,5 6,4 12,9 12,4 11 6 25 14 Z 1013,9 20 0 0,0
25.03.2017 22:00:00 7,1 4,9 6,5 13,3 12,4 11 6 27 14 ZO 1013,5 20 0 0,0
25.03.2017 21:00:00 7,7 5,8 7,2 13,6 12,4 11 6 23 13 ZZO 1012,9 20 0 0,0
25.03.2017 20:00:00 8,1 6,9 7,9 13,7 12,4 12 6 39 21 ZZO 1011,5 20 9 1,0
25.03.2017 19:00:00 8,4 6,7 8,2 13,7 12,4 21 12 45 24 Z 1010,6 8 8 1,4
25.03.2017 18:00:00 10,8 9,1 10,3 13,5 12,4 8 4 41 22 ZO 1009,8 20 0 0,6
25.03.2017 17:00:00 11,3 8,3 10,7 13,2 12,4 25 13 53 29 ZO 1009,6 10 12 0,6
25.03.2017 16:00:00 16,7 5,6 18,3 12,7 12,3 13 7 33 18 OZO 1008,3 20 19 0,0
25.03.2017 15:00:00 16,8 7,2 17,8 12,4 12,3 21 12 42 23 OZO 1008,8 20 7 0,0
25.03.2017 14:00:00 14,8 7,8 13,8 12,2 12,4 10 5 29 16 OZO 1009,3 20 0 0,0
25.03.2017 13:00:00 14,1 6,9 14,7 11,9 12,4 11 6 37 20 OZO 1010,0 20 0 0,0
25.03.2017 12:00:00 15,5 8,0 17,0 11,7 12,3 16 9 34 18 ZZO 1009,9 20 28 0,0
25.03.2017 11:00:00 15,6 8,1 16,2 11,5 12,3 19 10 38 21 O 1009,7 20 60 0,0
25.03.2017 10:00:00 12,7 8,4 10,0 11,6 12,3 18 10 34 19 ONO 1010,1 20 16 0,0
25.03.2017 09:00:00 9,4 7,7 8,5 11,7 12,3 9 5 15 8 ONO 1011,0 13 0 0,0
25.03.2017 08:00:00 8,5 7,0 7,8 11,8 12,3 7 4 14 8 NO 1012,1 20 0 0,0
25.03.2017 07:00:00 8,0 6,1 7,8 11,9 12,3 2 1 6 3 NNO 1012,5 20 0 0,0
25.03.2017 06:00:00 8,1 6,1 7,9 12,0 12,3 0 0 5 3 N 1013,5 20 0 0,0
25.03.2017 05:00:00 8,2 6,0 8,1 12,1 12,3 4 2 6 4 Z 1013,9 20 0 0,0
25.03.2017 04:00:00 8,4 5,9 8,2 12,3 12,3 3 1 6 4 ZO 1014,9 20 0 0,0
25.03.2017 03:00:00 8,5 5,6 8,1 12,4 12,3 3 2 9 5 Z 1015,8 20 0 0,0
25.03.2017 02:00:00 8,6 5,5 7,8 12,5 12,3 5 3 9 5 ZZO 1016,6 20 0 0,0
25.03.2017 01:00:00 9,1 5,1 7,8 12,7 12,3 5 3 19 10 O 1016,8 20 0 0,2
25.03.2017 00:00:00 10,2 4,1 9,9 12,9 12,2 12 6 30 16 O 1017,1 20 0 0,0
24.03.2017 23:00:00 11,0 5,7 10,6 13,0 12,3 14 8 24 13 O 1017,4 20 0 0,0
24.03.2017 22:00:00 11,5 6,2 11,1 13,2 12,3 7 4 16 9 O 1017,7 20 0 0,0
24.03.2017 21:00:00 11,6 6,1 11,1 13,2 12,3 11 6 19 10 OZO 1017,5 20 0 0,0
24.03.2017 20:00:00 12,4 6,0 12,3 13,1 12,3 6 4 19 10 O 1017,3 20 0 0,0
24.03.2017 19:00:00 13,1 6,7 14,2 12,9 12,3 8 5 23 13 NO 1016,8 20 0 0,0
24.03.2017 18:00:00 12,5 5,9 14,1 12,5 12,3 18 10 23 12 N 1016,7 20 12 0,0
24.03.2017 17:00:00 13,0 5,9 16,9 12,0 12,4 16 9 22 12 N 1016,9 25 52 0,0
24.03.2017 16:00:00 12,5 5,4 16,2 11,3 12,3 15 8 20 11 N 1017,2 25 49 0,0
24.03.2017 15:00:00 11,7 4,2 14,4 10,6 12,4 15 8 20 11 NNW 1017,6 25 29 0,0
24.03.2017 14:00:00 11,0 3,8 15,0 9,9 12,4 13 7 16 9 NNW 1017,7 20 42 0,0
24.03.2017 13:00:00 10,3 3,3 13,9 9,4 12,4 10 5 16 9 WNW 1017,9 20 47 0,0
24.03.2017 12:00:00 10,3 2,6 12,5 9,0 12,4 5 3 15 8 O 1017,7 20 46 0,0
24.03.2017 11:00:00 8,6 2,6 11,6 8,9 12,4 5 3 16 9 O 1017,5 25 54 0,0
24.03.2017 10:00:00 7,3 3,2 5,4 9,0 12,4 11 6 27 15 OZO 1016,6 20 60 0,0
24.03.2017 09:00:00 5,3 3,8 3,9 9,1 12,4 15 8 28 15 O 1016,3 20 16 0,0
24.03.2017 08:00:00 4,7 3,5 3,8 9,4 12,4 10 5 16 9 O 1015,4 20 0 0,0
24.03.2017 07:00:00 4,8 3,0 3,6 9,6 12,4 9 5 20 11 O 1014,9 20 0 0,0
24.03.2017 06:00:00 5,2 2,9 3,6 9,9 12,5 13 7 22 12 OZO 1014,6 20 0 0,0
24.03.2017 05:00:00 5,0 3,0 2,8 10,1 12,5 9 5 12 6 OZO 1014,5 20 0 0,0
24.03.2017 04:00:00 5,3 2,6 3,5 10,3 12,4 6 3 9 5 OZO 1014,8 20 0 0,0
24.03.2017 03:00:00 6,5 2,9 5,1 10,5 12,5 4 2 29 15 OZO 1014,7 20 0 0,0
24.03.2017 02:00:00 6,8 2,9 6,4 10,7 12,5 13 7 29 15 OZO 1014,3 20 0 0,0
24.03.2017 01:00:00 7,3 3,7 6,3 11,0 12,5 15 8 24 13 OZO 1013,8 20 0 0,0
24.03.2017 00:00:00 6,8 3,9 5,4 11,3 12,5 14 7 22 12 O 1013,4 20 0 0,0
23.03.2017 23:00:00 6,2 3,5 4,8 11,6 12,6 11 6 17 9 O 1013,2 20 0 0,0
23.03.2017 22:00:00 6,4 3,5 4,8 11,8 12,6 10 5 15 8 O 1012,5 20 0 0,0
23.03.2017 21:00:00 6,7 3,7 5,4 11,9 12,6 8 4 10 5 O 1011,4 20 0 0,0
23.03.2017 20:00:00 9,3 3,7 8,2 11,9 12,7 2 1 10 6 O 1011,0 20 26 0,0
23.03.2017 19:00:00 10,5 3,3 11,0 11,6 12,7 6 3 14 8 N 1010,4 20 51 0,0
23.03.2017 18:00:00 10,7 5,0 11,5 11,2 12,7 12 7 29 16 WNW 1010,1 20 45 0,0
23.03.2017 17:00:00 10,6 2,9 13,3 10,7 12,7 20 11 33 18 W 1010,1 19 26 0,0
23.03.2017 16:00:00 10,1 3,6 13,2 10,2 12,7 23 13 36 19 WZW 1009,9 20 31 0,0
23.03.2017 15:00:00 10,2 4,3 9,9 9,7 12,8 29 16 42 23 WZW 1010,0 18 24 0,0
23.03.2017 14:00:00 9,2 5,7 8,4 9,5 12,8 35 19 44 24 WZW 1009,8 15 4 0,0
23.03.2017 13:00:00 7,1 4,9 5,9 9,3 12,8 31 17 53 29 W 1009,6 19 13 1,4
23.03.2017 12:00:00 5,9 3,9 4,9 9,4 12,9 51 27 68 37 W 1009,6 6 0 2,0
23.03.2017 11:00:00 5,9 4,7 5,1 9,5 12,9 29 16 50 27 ZW 1009,5 6 0 2,5
23.03.2017 10:00:00 5,4 4,5 4,9 9,6 12,9 4 2 11 6 ZO 1009,1 7 0 0,6
23.03.2017 09:00:00 4,9 3,9 4,8 9,7 12,9 8 5 36 20 W 1008,5 6 0 3,2
23.03.2017 08:00:00 5,3 4,3 5,0 9,8 12,9 9 5 17 9 Z 1008,0 18 0 0,0
23.03.2017 07:00:00 5,8 4,1 5,3 9,9 12,9 13 7 35 19 W 1007,8 16 0 0,2
23.03.2017 06:00:00 5,7 4,8 5,4 10,0 12,9 20 11 29 16 W 1008,0 16 0 0,9
23.03.2017 05:00:00 5,6 4,9 5,4 10,2 13,0 5 3 12 7 ZZW 1008,2 6 0 0,8
23.03.2017 04:00:00 5,5 4,6 5,3 10,4 13,0 6 3 17 9 Z 1008,8 8 0 0,6
23.03.2017 03:00:00 5,7 4,7 5,3 10,6 13,0 5 3 16 9 Z 1009,1 7 0 3,8
23.03.2017 02:00:00 5,7 4,5 5,4 10,8 13,0 11 6 19 10 ZZW 1009,3 16 0 0,6
23.03.2017 01:00:00 5,8 4,6 5,5 11,0 13,0 9 5 19 10 ZZO 1009,1 20 0 0,0
23.03.2017 00:00:00 6,0 4,6 5,6 11,2 13,0 10 6 29 16 ZZO 1009,0 20 0 2,4
22.03.2017 23:00:00 6,7 5,6 6,5 11,4 13,1 8 5 21 12 Z 1009,6 8 0 0,6
22.03.2017 22:00:00 6,8 5,6 6,5 11,6 13,0 8 4 14 8 ZZO 1008,6 20 0 0,0
22.03.2017 21:00:00 6,7 5,3 6,5 11,7 13,1 6 3 11 6 ZZO 1008,4 20 0 0,0
22.03.2017 20:00:00 7,0 5,6 6,8 11,9 13,1 5 3 8 5 Z 1009,0 20 0 0,0
22.03.2017 19:00:00 7,1 5,4 6,4 12,0 13,1 4 2 32 17 ZO 1008,5 16 0 0,6
22.03.2017 18:00:00 7,1 4,1 6,3 12,0 13,2 29 16 47 25 NW 1009,2 19 0 1,6
22.03.2017 17:00:00 8,9 6,0 8,8 11,9 13,2 12 6 17 9 W 1009,2 20 0 0,0
22.03.2017 16:00:00 9,0 6,6 8,6 11,7 13,2 13 7 37 20 W 1009,5 25 0 0,4
22.03.2017 15:00:00 9,5 6,2 8,8 11,4 13,2 24 13 34 18 WNW 1010,2 10 0 0,2
22.03.2017 14:00:00 11,0 5,7 9,7 11,1 13,2 15 8 24 13 WNW 1010,2 20 0 0,0
22.03.2017 13:00:00 9,5 6,2 9,3 10,8 13,2 26 14 49 26 NW 1010,7 16 1 0,0
22.03.2017 12:00:00 12,1 7,6 11,9 10,6 13,2 21 11 30 16 ZW 1010,1 17 20 0,0
22.03.2017 11:00:00 9,8 6,7 8,5 10,5 13,2 13 7 32 17 Z 1010,4 20 22 0,0
22.03.2017 10:00:00 7,6 5,7 6,9 10,6 13,2 19 10 36 20 ZZO 1010,1 20 31 0,0
22.03.2017 09:00:00 6,8 5,1 5,8 10,8 13,3 20 11 37 20 ZZO 1010,2 20 16 0,0
22.03.2017 08:00:00 6,4 4,9 5,6 11,1 13,3 15 8 29 16 ZZO 1010,7 20 0 0,0
22.03.2017 07:00:00 6,5 5,4 6,0 11,3 13,3 14 7 22 12 ZZO 1011,5 20 0 0,0
22.03.2017 06:00:00 6,8 5,9 5,7 11,5 13,3 12 6 20 11 ZZO 1012,3 20 0 0,0
22.03.2017 05:00:00 6,5 5,4 5,6 11,7 13,3 9 5 14 8 Z 1013,3 20 0 0,2
22.03.2017 04:00:00 6,9 5,8 6,1 12,0 13,3 10 5 16 9 Z 1014,2 20 0 0,0
22.03.2017 03:00:00 7,4 6,2 6,5 12,2 13,3 9 5 17 9 ZZO 1015,2 20 0 0,0
22.03.2017 02:00:00 7,6 6,5 6,7 12,4 13,3 9 5 17 9 Z 1016,3 19 0 0,0
22.03.2017 01:00:00 8,3 6,9 7,4 12,6 13,3 9 5 29 15 Z 1017,3 20 0 0,0
22.03.2017 00:00:00 8,9 6,9 8,3 12,8 13,3 20 11 - - WZW 1017,9 19 0 0,0
21.03.2017 23:00:00 8,9 6,5 7,4 13,0 13,3 - - - - - 1018,3 18 0 0,0
21.03.2017 22:00:00 8,8 6,1 6,7 13,2 13,3 13 7 - - W 1018,2 19 0 0,0
21.03.2017 21:00:00 8,2 5,1 6,6 13,3 13,3 11 6 15 8 W 1018,3 20 0 0,0
21.03.2017 20:00:00 9,3 6,6 8,8 13,4 13,3 8 4 14 7 NNW 1018,3 20 0 0,0
21.03.2017 19:00:00 9,6 7,4 9,3 13,4 13,3 9 5 19 11 N 1018,3 20 0 0,4
21.03.2017 18:00:00 9,7 6,8 9,6 13,3 13,4 15 8 21 11 NW 1018,3 20 0 0,0
21.03.2017 17:00:00 9,8 7,0 10,6 13,1 13,4 15 8 21 11 NNW 1018,3 15 0 0,4
21.03.2017 16:00:00 9,7 8,0 10,0 13,0 13,4 18 10 27 15 NNW 1018,4 19 0 0,4
21.03.2017 15:00:00 9,6 7,7 10,1 12,9 13,4 18 10 27 15 N 1018,4 12 0 0,4
21.03.2017 14:00:00 9,4 8,0 9,4 12,8 13,4 14 8 48 26 NO 1018,2 17 0 1,0
21.03.2017 13:00:00 10,4 8,3 10,1 12,7 13,4 27 15 36 20 N 1017,6 4,1 0 0,4
21.03.2017 12:00:00 10,0 8,6 9,7 12,6 13,4 11 6 49 27 NO 1017,4 20 0 0,2
21.03.2017 11:00:00 9,7 8,8 9,6 12,7 13,4 35 19 51 27 NNO 1016,8 8 0 0,2
21.03.2017 10:00:00 10,5 9,6 10,5 12,7 13,4 34 19 53 29 NNW 1015,7 3,3 0 0,8
21.03.2017 09:00:00 11,1 10,3 10,5 12,7 13,4 28 15 39 21 WZW 1015,7 10 0 0,8
21.03.2017 08:00:00 11,3 9,9 10,4 12,8 13,4 26 14 32 18 W 1015,6 7 0 0,0
21.03.2017 07:00:00 10,9 9,7 9,8 12,9 13,4 20 11 35 19 W 1015,8 9 0 0,0
21.03.2017 06:00:00 - - - - - - - - - - - - - -

tt = temperatuur
td = dauwpunt
tt 5cm = temperatuur 5cm
tt -20cm = temperatuur -20cm
tt -100cm = temperatuur -100cm
ff = windsnelheid
fx = windstoten
dd = windrichting
ppp = luchtdruk
vv = zicht
sd = Zonneschijnduur
rr = neerslag

Weerstations in de omgeving